AAL2689 KDFW-KMIA

Flight info

Callsign AAL2689
Flight time 2h 2m
Altitude 37000
Route MRSSH3 ZALEA HRV Q105 BLVNS Y290 DOWRY FROGZ5
Aircraft A21N/M-SDE2E3FGHIJ1RWXY/LB1

Departure

Time 2026-05-05 09:00
Airport Dallas Fort Worth International Airport (KDFW)

Arrival

Time 2026-05-05 11:03
Airport Miami International Airport (KMIA)
Time Latitude Longitude Altitude Speed Heading
2026-05-05 08:41 32.90411 -97.04582 613 ft 0 kts 74°
2026-05-05 08:51 32.90407 -97.04597 614 ft 2 kts 73°
2026-05-05 08:51 32.90405 -97.04608 614 ft 2 kts 73°
2026-05-05 08:52 32.90397 -97.04623 614 ft 2 kts 38°
2026-05-05 08:52 32.90383 -97.04632 614 ft 2 kts
2026-05-05 08:52 32.90374 -97.04633 614 ft 0 kts 351°
2026-05-05 08:52 32.90366 -97.04630 614 ft 0 kts 348°
2026-05-05 08:55 32.90369 -97.04631 614 ft 2 kts 348°
2026-05-05 08:55 32.90411 -97.04637 614 ft 9 kts 342°
2026-05-05 08:55 32.90466 -97.04718 614 ft 14 kts 285°
2026-05-05 08:55 32.90476 -97.04837 613 ft 13 kts 277°
2026-05-05 08:56 32.90550 -97.04880 614 ft 13 kts
2026-05-05 08:56 32.90651 -97.04879 614 ft 14 kts
2026-05-05 08:56 32.90757 -97.04878 614 ft 15 kts
2026-05-05 08:56 32.90866 -97.04877 614 ft 16 kts
2026-05-05 08:57 32.90980 -97.04877 614 ft 17 kts 360°
2026-05-05 08:57 32.91110 -97.04877 614 ft 19 kts
2026-05-05 08:57 32.91248 -97.04874 614 ft 19 kts
2026-05-05 08:57 32.91386 -97.04873 614 ft 19 kts
2026-05-05 08:58 32.91517 -97.04874 614 ft 15 kts 354°
2026-05-05 08:58 32.91571 -97.04964 614 ft 15 kts 270°
2026-05-05 08:58 32.91571 -97.05083 614 ft 14 kts 270°
2026-05-05 08:58 32.91571 -97.05199 614 ft 13 kts 269°
2026-05-05 08:59 32.91569 -97.05308 614 ft 12 kts 269°
2026-05-05 08:59 32.91568 -97.05383 614 ft 13 kts 268°
2026-05-05 08:59 32.91552 -97.05450 614 ft 5 kts 216°
2026-05-05 08:59 32.91447 -97.05460 614 ft 43 kts 180°
2026-05-05 09:00 32.90865 -97.05464 614 ft 120 kts 180°
2026-05-05 09:00 32.89845 -97.05462 828 ft 161 kts 180°
2026-05-05 09:00 32.88739 -97.05433 1637 ft 161 kts 180°
2026-05-05 09:00 32.87683 -97.05334 2685 ft 152 kts 182°
2026-05-05 09:01 32.86619 -97.05187 3277 ft 164 kts 184°
2026-05-05 09:01 32.85433 -97.05036 3798 ft 181 kts 184°
2026-05-05 09:01 32.84122 -97.04874 4325 ft 198 kts 183°
2026-05-05 09:01 32.82670 -97.04696 4769 ft 222 kts 182°
2026-05-05 09:02 32.81076 -97.04494 5326 ft 241 kts 182°
2026-05-05 09:02 32.79352 -97.04123 5883 ft 269 kts 166°
2026-05-05 09:02 32.77791 -97.02711 6510 ft 302 kts 130°
2026-05-05 09:02 32.76993 -97.00351 7410 ft 315 kts 100°
2026-05-05 09:03 32.76834 -96.97781 8375 ft 318 kts 92°
2026-05-05 09:03 32.76767 -96.95152 9285 ft 321 kts 93°
2026-05-05 09:03 32.76639 -96.92508 10166 ft 325 kts 95°
2026-05-05 09:03 32.76435 -96.89832 10836 ft 335 kts 97°
2026-05-05 09:04 32.76161 -96.87030 11302 ft 353 kts 98°
2026-05-05 09:04 32.75836 -96.84082 11937 ft 364 kts 98°
2026-05-05 09:04 32.75492 -96.81118 12702 ft 368 kts 99°
2026-05-05 09:04 32.75136 -96.78115 13461 ft 372 kts 99°
2026-05-05 09:05 32.74765 -96.75043 14170 ft 378 kts 98°
2026-05-05 09:05 32.74390 -96.71956 14822 ft 386 kts 98°
2026-05-05 09:05 32.74003 -96.68767 15467 ft 393 kts 98°
2026-05-05 09:05 32.73613 -96.65551 16104 ft 401 kts 98°
2026-05-05 09:06 32.73212 -96.62247 16753 ft 408 kts 98°
2026-05-05 09:06 32.72809 -96.58931 17371 ft 415 kts 97°
2026-05-05 09:06 32.72388 -96.55478 17999 ft 422 kts 97°
2026-05-05 09:06 32.71966 -96.52023 18651 ft 427 kts 97°
2026-05-05 09:07 32.71544 -96.48555 19338 ft 430 kts 97°
2026-05-05 09:07 32.71117 -96.45054 20033 ft 432 kts 97°
2026-05-05 09:07 32.70685 -96.41538 20672 ft 435 kts 97°
2026-05-05 09:07 32.70245 -96.37980 21296 ft 438 kts 97°
2026-05-05 09:08 32.69806 -96.34399 21907 ft 441 kts 97°
2026-05-05 09:08 32.69481 -96.30787 22477 ft 444 kts 94°
2026-05-05 09:08 32.69233 -96.27146 23018 ft 447 kts 94°
2026-05-05 09:08 32.68996 -96.23449 23529 ft 451 kts 94°
2026-05-05 09:09 32.68760 -96.19761 23984 ft 456 kts 93°
2026-05-05 09:09 32.68521 -96.16114 24431 ft 461 kts 94°
2026-05-05 09:09 32.68269 -96.12281 24873 ft 466 kts 93°
2026-05-05 09:09 32.68015 -96.08457 25299 ft 471 kts 93°
2026-05-05 09:10 32.67754 -96.04562 25736 ft 475 kts 93°
2026-05-05 09:10 32.67491 -96.00673 26142 ft 480 kts 93°
2026-05-05 09:10 32.67223 -95.96721 26548 ft 485 kts 93°
2026-05-05 09:10 32.66949 -95.92707 26945 ft 489 kts 93°
2026-05-05 09:11 32.66677 -95.88738 27335 ft 493 kts 92°
2026-05-05 09:11 32.66396 -95.84657 27730 ft 497 kts 92°
2026-05-05 09:11 32.66108 -95.80537 28106 ft 501 kts 92°
2026-05-05 09:11 32.65820 -95.76419 28430 ft 506 kts 92°
2026-05-05 09:12 32.65530 -95.72293 28791 ft 510 kts 92°
2026-05-05 09:12 32.65233 -95.68094 29173 ft 513 kts 92°
2026-05-05 09:12 32.64937 -95.63898 29551 ft 516 kts 92°
2026-05-05 09:12 32.64632 -95.59605 29914 ft 520 kts 92°
2026-05-05 09:13 32.64333 -95.55379 30356 ft 521 kts 92°
2026-05-05 09:13 32.64023 -95.51077 30906 ft 519 kts 92°
2026-05-05 09:13 32.63717 -95.46870 31420 ft 518 kts 92°
2026-05-05 09:13 32.63411 -95.42641 31876 ft 518 kts 91°
2026-05-05 09:14 32.63102 -95.38385 32333 ft 517 kts 92°
2026-05-05 09:14 32.62794 -95.34133 32779 ft 517 kts 92°
2026-05-05 09:14 32.62485 -95.29902 33176 ft 516 kts 92°
2026-05-05 09:14 32.62173 -95.25675 33596 ft 516 kts 92°
2026-05-05 09:15 32.61861 -95.21482 33993 ft 516 kts 92°
2026-05-05 09:15 32.61544 -95.17234 34389 ft 516 kts 92°
2026-05-05 09:15 32.61234 -95.13057 34785 ft 515 kts 92°
2026-05-05 09:15 32.60918 -95.08849 35186 ft 514 kts 92°
2026-05-05 09:16 32.60599 -95.04623 35589 ft 512 kts 92°
2026-05-05 09:16 32.60284 -95.00418 35880 ft 513 kts 92°
2026-05-05 09:16 32.59963 -94.96194 36129 ft 515 kts 92°
2026-05-05 09:16 32.59645 -94.91998 36321 ft 518 kts 92°
2026-05-05 09:17 32.59320 -94.87759 36545 ft 519 kts 91°
2026-05-05 09:17 32.58988 -94.83520 36787 ft 521 kts 93°
2026-05-05 09:17 32.58503 -94.79278 36820 ft 523 kts 97°
2026-05-05 09:18 32.56760 -94.70863 36826 ft 530 kts 107°
2026-05-05 09:18 32.54381 -94.62554 36825 ft 543 kts 109°
2026-05-05 09:19 32.51913 -94.54057 36828 ft 550 kts 108°
2026-05-05 09:19 32.49474 -94.45505 36834 ft 550 kts 107°
2026-05-05 09:20 32.47035 -94.36923 36838 ft 550 kts 108°
2026-05-05 09:20 32.44598 -94.28368 36840 ft 550 kts 108°
2026-05-05 09:21 32.42147 -94.19797 36845 ft 550 kts 108°
2026-05-05 09:21 32.39703 -94.11270 36850 ft 550 kts 108°
2026-05-05 09:22 32.37252 -94.02747 36852 ft 550 kts 107°
2026-05-05 09:22 32.34777 -93.94161 36853 ft 551 kts 108°
2026-05-05 09:23 32.32309 -93.85632 36857 ft 551 kts 108°
2026-05-05 09:23 32.29840 -93.77113 36860 ft 551 kts 108°
2026-05-05 09:24 32.27369 -93.68593 36857 ft 552 kts 108°
2026-05-05 09:24 32.24862 -93.59991 36860 ft 552 kts 108°
2026-05-05 09:25 32.22135 -93.51573 36858 ft 553 kts 114°
2026-05-05 09:25 32.18492 -93.43630 36860 ft 552 kts 124°
2026-05-05 09:26 32.13980 -93.36320 36867 ft 550 kts 130°
2026-05-05 09:26 32.09286 -93.29269 36869 ft 550 kts 131°
2026-05-05 09:27 32.04585 -93.22162 36875 ft 550 kts 130°
2026-05-05 09:27 31.99902 -93.15030 36871 ft 550 kts 130°
2026-05-05 09:28 31.95243 -93.07932 36879 ft 550 kts 130°
2026-05-05 09:28 31.90562 -93.00814 36879 ft 551 kts 130°
2026-05-05 09:29 31.85878 -92.93701 36889 ft 551 kts 130°
2026-05-05 09:29 31.81193 -92.86592 36891 ft 550 kts 130°
2026-05-05 09:30 31.76490 -92.79486 36898 ft 551 kts 130°
2026-05-05 09:30 31.71813 -92.72425 36897 ft 552 kts 130°
2026-05-05 09:31 31.67126 -92.65356 36899 ft 551 kts 130°
2026-05-05 09:31 31.62398 -92.58246 36900 ft 550 kts 129°
2026-05-05 09:32 31.57703 -92.51197 36905 ft 551 kts 129°
2026-05-05 09:32 31.52983 -92.44122 36918 ft 551 kts 130°
2026-05-05 09:33 31.48278 -92.37082 36928 ft 550 kts 129°
2026-05-05 09:33 31.43575 -92.30049 36930 ft 550 kts 130°
2026-05-05 09:34 31.38860 -92.23022 36931 ft 549 kts 130°
2026-05-05 09:34 31.34138 -92.16004 36938 ft 549 kts 130°
2026-05-05 09:35 31.29427 -92.09010 36942 ft 549 kts 130°
2026-05-05 09:35 31.22379 -91.98561 36955 ft 548 kts 130°
2026-05-05 09:36 31.17645 -91.91560 36954 ft 548 kts 129°
2026-05-05 09:36 31.12920 -91.84592 36953 ft 549 kts 129°
2026-05-05 09:37 31.08187 -91.77618 36950 ft 549 kts 130°
2026-05-05 09:37 31.03452 -91.70652 36954 ft 548 kts 129°
2026-05-05 09:38 30.98742 -91.63741 36957 ft 548 kts 129°
2026-05-05 09:38 30.94018 -91.56821 36960 ft 549 kts 129°
2026-05-05 09:39 30.89276 -91.49880 36956 ft 548 kts 130°
2026-05-05 09:39 30.84506 -91.42913 36961 ft 548 kts 130°
2026-05-05 09:40 30.79766 -91.36005 36966 ft 547 kts 130°
2026-05-05 09:40 30.75018 -91.29098 36972 ft 550 kts 130°
2026-05-05 09:41 30.70248 -91.22173 36975 ft 555 kts 130°
2026-05-05 09:41 30.65405 -91.15148 36977 ft 557 kts 130°
2026-05-05 09:42 30.60588 -91.08167 36980 ft 556 kts 130°
2026-05-05 09:42 30.55751 -91.01183 36978 ft 556 kts 130°
2026-05-05 09:43 30.50907 -90.94200 36983 ft 557 kts 130°
2026-05-05 09:43 30.46063 -90.87222 36983 ft 556 kts 130°
2026-05-05 09:44 30.41231 -90.80276 36983 ft 556 kts 129°
2026-05-05 09:44 30.36377 -90.73315 36983 ft 556 kts 130°
2026-05-05 09:45 30.31522 -90.66355 36983 ft 556 kts 130°
2026-05-05 09:45 30.26682 -90.59437 36984 ft 555 kts 130°
2026-05-05 09:46 30.21824 -90.52510 36985 ft 555 kts 129°
2026-05-05 09:46 30.16971 -90.45586 36985 ft 556 kts 130°
2026-05-05 09:47 30.12123 -90.38696 36987 ft 556 kts 129°
2026-05-05 09:47 30.07234 -90.31751 36986 ft 556 kts 130°
2026-05-05 09:48 30.02385 -90.24872 36984 ft 555 kts 130°
2026-05-05 09:48 29.97487 -90.17939 36985 ft 555 kts 130°
2026-05-05 09:49 29.92649 -90.11103 36993 ft 555 kts 130°
2026-05-05 09:49 29.87753 -90.04188 36996 ft 555 kts 130°
2026-05-05 09:50 29.82875 -89.97363 36998 ft 554 kts 131°
2026-05-05 09:50 29.77887 -89.90583 36998 ft 554 kts 131°
2026-05-05 09:51 29.72926 -89.83843 36995 ft 554 kts 131°
2026-05-05 09:51 29.67986 -89.77118 36993 ft 554 kts 131°
2026-05-05 09:52 29.63010 -89.70381 36991 ft 554 kts 131°
2026-05-05 09:52 29.58027 -89.63632 36987 ft 554 kts 131°
2026-05-05 09:53 29.53040 -89.56883 36984 ft 553 kts 130°
2026-05-05 09:53 29.48066 -89.50163 36982 ft 553 kts 130°
2026-05-05 09:54 29.43110 -89.43475 36982 ft 552 kts 131°
2026-05-05 09:54 29.38110 -89.36746 36987 ft 554 kts 130°
2026-05-05 09:55 29.33139 -89.30050 36988 ft 553 kts 131°
2026-05-05 09:55 29.28156 -89.23360 36995 ft 553 kts 131°
2026-05-05 09:56 29.23154 -89.16665 36994 ft 553 kts 131°
2026-05-05 09:56 29.18152 -89.09966 36993 ft 553 kts 131°
2026-05-05 09:57 29.13174 -89.03313 36998 ft 553 kts 131°
2026-05-05 09:57 29.08191 -88.96665 36995 ft 553 kts 131°
2026-05-05 09:58 29.03182 -88.89996 36986 ft 552 kts 131°
2026-05-05 09:58 28.98206 -88.83378 36983 ft 552 kts 130°
2026-05-05 09:59 28.93210 -88.76736 36985 ft 551 kts 131°
2026-05-05 09:59 28.88223 -88.70116 36984 ft 551 kts 131°
2026-05-05 10:00 28.83256 -88.63490 36989 ft 550 kts 130°
2026-05-05 10:00 28.78312 -88.56857 36990 ft 552 kts 130°
2026-05-05 10:01 28.73358 -88.50217 36992 ft 552 kts 130°
2026-05-05 10:01 28.68379 -88.43556 36992 ft 551 kts 130°
2026-05-05 10:02 28.63399 -88.36907 36995 ft 552 kts 130°
2026-05-05 10:02 28.58429 -88.30283 36994 ft 551 kts 131°
2026-05-05 10:03 28.53455 -88.23669 36996 ft 552 kts 130°
2026-05-05 10:03 28.48513 -88.17091 36997 ft 551 kts 130°
2026-05-05 10:04 28.43555 -88.10445 36992 ft 550 kts 128°
2026-05-05 10:04 28.39227 -88.03346 36987 ft 548 kts 118°
2026-05-05 10:05 28.35900 -87.95626 36984 ft 544 kts 108°
2026-05-05 10:05 28.33491 -87.87590 36983 ft 540 kts 103°
2026-05-05 10:06 28.31215 -87.79434 36983 ft 540 kts 103°
2026-05-05 10:06 28.28920 -87.71375 36983 ft 541 kts 103°
2026-05-05 10:07 28.26580 -87.63293 36983 ft 541 kts 103°
2026-05-05 10:07 28.24221 -87.55189 36985 ft 542 kts 104°
2026-05-05 10:08 28.21864 -87.47109 36984 ft 541 kts 103°
2026-05-05 10:08 28.19499 -87.39028 36986 ft 543 kts 104°
2026-05-05 10:09 28.17114 -87.30901 36981 ft 543 kts 104°
2026-05-05 10:09 28.14732 -87.22803 36980 ft 542 kts 104°
2026-05-05 10:10 28.12367 -87.14780 36981 ft 542 kts 104°
2026-05-05 10:10 28.09979 -87.06686 36980 ft 543 kts 104°
2026-05-05 10:11 28.07580 -86.98581 36983 ft 543 kts 104°
2026-05-05 10:11 28.05192 -86.90534 36983 ft 544 kts 104°
2026-05-05 10:12 28.02792 -86.82463 36983 ft 542 kts 104°
2026-05-05 10:12 28.00380 -86.74343 36986 ft 542 kts 103°
2026-05-05 10:13 27.98041 -86.66295 36989 ft 543 kts 103°
2026-05-05 10:13 27.95710 -86.58225 36988 ft 542 kts 103°
2026-05-05 10:14 27.93367 -86.50138 36989 ft 543 kts 103°
2026-05-05 10:14 27.91017 -86.42071 36992 ft 542 kts 103°
2026-05-05 10:15 27.88665 -86.34007 36988 ft 541 kts 104°
2026-05-05 10:15 27.86303 -86.25919 36996 ft 543 kts 103°
2026-05-05 10:16 27.83943 -86.17875 36995 ft 541 kts 104°
2026-05-05 10:16 27.81569 -86.09800 36995 ft 541 kts 104°
2026-05-05 10:17 27.79209 -86.01781 36996 ft 541 kts 103°
2026-05-05 10:17 27.76832 -85.93734 36995 ft 541 kts 104°
2026-05-05 10:18 27.74468 -85.85739 36995 ft 541 kts 104°
2026-05-05 10:18 27.72076 -85.77675 36998 ft 543 kts 103°
2026-05-05 10:19 27.69679 -85.69621 37000 ft 542 kts 104°
2026-05-05 10:19 27.67285 -85.61581 36995 ft 542 kts 104°
2026-05-05 10:20 27.64897 -85.53584 36998 ft 542 kts 103°
2026-05-05 10:20 27.62484 -85.45509 36997 ft 541 kts 103°
2026-05-05 10:21 27.60085 -85.37478 36996 ft 541 kts 102°
2026-05-05 10:21 27.58213 -85.29349 36993 ft 535 kts 96°
2026-05-05 10:22 27.56833 -85.21169 37002 ft 535 kts 94°
2026-05-05 10:22 27.55434 -85.12937 37009 ft 537 kts 95°
2026-05-05 10:23 27.53987 -85.04725 37014 ft 537 kts 95°
2026-05-05 10:23 27.52538 -84.96493 37011 ft 536 kts 95°
2026-05-05 10:24 27.51090 -84.88272 37012 ft 537 kts 94°
2026-05-05 10:24 27.49639 -84.80048 37011 ft 537 kts 95°
2026-05-05 10:25 27.48178 -84.71841 37009 ft 538 kts 95°
2026-05-05 10:25 27.46712 -84.63642 37007 ft 537 kts 95°
2026-05-05 10:26 27.45234 -84.55379 37006 ft 536 kts 94°
2026-05-05 10:26 27.43767 -84.47171 37009 ft 536 kts 94°
2026-05-05 10:27 27.42296 -84.39011 37006 ft 536 kts 94°
2026-05-05 10:27 27.40810 -84.30802 37001 ft 538 kts 95°
2026-05-05 10:28 27.39301 -84.22543 37000 ft 537 kts 95°
2026-05-05 10:28 27.37815 -84.14366 37006 ft 539 kts 95°
2026-05-05 10:29 27.36311 -84.06159 37002 ft 538 kts 95°
2026-05-05 10:29 27.34801 -83.97929 37002 ft 537 kts 95°
2026-05-05 10:30 27.33297 -83.89742 37000 ft 537 kts 95°
2026-05-05 10:30 27.31781 -83.81523 37003 ft 537 kts 95°
2026-05-05 10:31 27.30265 -83.73359 37005 ft 537 kts 95°
2026-05-05 10:31 27.28737 -83.65136 37006 ft 537 kts 96°
2026-05-05 10:32 27.27214 -83.56967 37004 ft 537 kts 95°
2026-05-05 10:32 27.25676 -83.48774 37006 ft 536 kts 95°
2026-05-05 10:33 27.24148 -83.40594 37007 ft 536 kts 95°
2026-05-05 10:33 27.22606 -83.32398 37003 ft 537 kts 96°
2026-05-05 10:34 27.21056 -83.24194 37007 ft 537 kts 96°
2026-05-05 10:34 27.19516 -83.16052 37009 ft 537 kts 95°
2026-05-05 10:35 27.17957 -83.07834 37010 ft 538 kts 96°
2026-05-05 10:35 27.16395 -82.99669 37012 ft 539 kts 95°
2026-05-05 10:36 27.14744 -82.91502 37007 ft 541 kts 99°
2026-05-05 10:36 27.12302 -82.83446 37008 ft 547 kts 108°
2026-05-05 10:37 27.08919 -82.75796 37013 ft 551 kts 117°
2026-05-05 10:37 27.04911 -82.68536 37018 ft 552 kts 119°
2026-05-05 10:38 27.00839 -82.61245 37019 ft 551 kts 119°
2026-05-05 10:38 26.96806 -82.53925 37018 ft 550 kts 118°
2026-05-05 10:39 26.92505 -82.46838 37021 ft 553 kts 126°
2026-05-05 10:39 26.87436 -82.40456 37019 ft 553 kts 135°
2026-05-05 10:40 26.81691 -82.34761 37010 ft 551 kts 141°
2026-05-05 10:40 26.75810 -82.29223 37015 ft 552 kts 141°
2026-05-05 10:41 26.69975 -82.23673 37012 ft 551 kts 141°
2026-05-05 10:41 26.64184 -82.18137 37013 ft 551 kts 141°
2026-05-05 10:42 26.58415 -82.12613 36573 ft 541 kts 140°
2026-05-05 10:42 26.55545 -82.09870 35574 ft 540 kts 141°
2026-05-05 10:42 26.52704 -82.07162 34240 ft 544 kts 140°
2026-05-05 10:43 26.49868 -82.04373 32873 ft 548 kts 139°
2026-05-05 10:43 26.47069 -82.01547 31866 ft 543 kts 138°
2026-05-05 10:43 26.44311 -81.98742 31059 ft 535 kts 138°
2026-05-05 10:43 26.41594 -81.95980 30281 ft 526 kts 139°
2026-05-05 10:44 26.38899 -81.93254 29505 ft 517 kts 139°
2026-05-05 10:44 26.36256 -81.90590 28698 ft 508 kts 139°
2026-05-05 10:44 26.33675 -81.87996 27745 ft 498 kts 139°
2026-05-05 10:44 26.31123 -81.85429 26669 ft 490 kts 139°
2026-05-05 10:45 26.28646 -81.82944 25620 ft 483 kts 140°
2026-05-05 10:45 26.26183 -81.80471 24577 ft 475 kts 139°
2026-05-05 10:45 26.23934 -81.77818 23549 ft 469 kts 128°
2026-05-05 10:45 26.22197 -81.74828 22584 ft 461 kts 117°
2026-05-05 10:46 26.20777 -81.71645 21674 ft 452 kts 115°
2026-05-05 10:46 26.19478 -81.68538 20874 ft 442 kts 115°
2026-05-05 10:46 26.18215 -81.65512 20329 ft 424 kts 115°
2026-05-05 10:46 26.16976 -81.62591 20052 ft 419 kts 115°
2026-05-05 10:47 26.15718 -81.59657 20009 ft 418 kts 115°
2026-05-05 10:47 26.14452 -81.56735 19620 ft 417 kts 115°
2026-05-05 10:47 26.13208 -81.53873 18672 ft 418 kts 116°
2026-05-05 10:47 26.11950 -81.50986 17968 ft 407 kts 116°
2026-05-05 10:48 26.10742 -81.48212 17581 ft 398 kts 116°
2026-05-05 10:48 26.09528 -81.45430 17157 ft 395 kts 116°
2026-05-05 10:48 26.08340 -81.42713 16730 ft 393 kts 116°
2026-05-05 10:48 26.07143 -81.39977 16286 ft 391 kts 116°
2026-05-05 10:49 26.05969 -81.37289 15850 ft 389 kts 116°
2026-05-05 10:49 26.04794 -81.34598 15422 ft 387 kts 117°
2026-05-05 10:49 26.03623 -81.31910 14977 ft 384 kts 117°
2026-05-05 10:49 26.02473 -81.29273 14549 ft 381 kts 117°
2026-05-05 10:50 26.01315 -81.26615 14142 ft 377 kts 117°
2026-05-05 10:50 26.00187 -81.24030 14026 ft 368 kts 116°
2026-05-05 10:50 25.99073 -81.21474 14005 ft 368 kts 117°
2026-05-05 10:50 25.97961 -81.18925 13567 ft 371 kts 117°
2026-05-05 10:51 25.96825 -81.16329 12834 ft 377 kts 117°
2026-05-05 10:51 25.95695 -81.13747 12319 ft 376 kts 117°
2026-05-05 10:51 25.94558 -81.11148 11883 ft 371 kts 117°
2026-05-05 10:51 25.93438 -81.08589 11427 ft 367 kts 117°
2026-05-05 10:52 25.92317 -81.06030 10954 ft 364 kts 117°
2026-05-05 10:52 25.91237 -81.03539 10578 ft 358 kts 115°
2026-05-05 10:52 25.90255 -81.01038 10234 ft 352 kts 114°
2026-05-05 10:52 25.89311 -80.98558 9911 ft 344 kts 114°
2026-05-05 10:53 25.88395 -80.96141 9622 ft 336 kts 114°
2026-05-05 10:53 25.87492 -80.93775 9266 ft 331 kts 115°
2026-05-05 10:53 25.86604 -80.91458 9047 ft 321 kts 114°
2026-05-05 10:53 25.85730 -80.89185 8701 ft 317 kts 114°
2026-05-05 10:54 25.84880 -80.86977 8379 ft 312 kts 114°
2026-05-05 10:54 25.84031 -80.84769 8052 ft 307 kts 114°
2026-05-05 10:54 25.83201 -80.82611 7723 ft 303 kts 114°
2026-05-05 10:54 25.82381 -80.80482 7417 ft 298 kts 114°
2026-05-05 10:55 25.81566 -80.78362 7092 ft 294 kts 114°
2026-05-05 10:55 25.80775 -80.76310 6758 ft 290 kts 114°
2026-05-05 10:55 25.79991 -80.74276 6403 ft 287 kts 114°
2026-05-05 10:55 25.79205 -80.72240 6024 ft 285 kts 114°
2026-05-05 10:56 25.78431 -80.70235 5667 ft 283 kts 113°
2026-05-05 10:56 25.77663 -80.68246 5314 ft 280 kts 112°
2026-05-05 10:56 25.77141 -80.66186 4939 ft 279 kts 97°
2026-05-05 10:56 25.77106 -80.64036 4481 ft 279 kts 86°
2026-05-05 10:57 25.77224 -80.61879 4112 ft 276 kts 85°
2026-05-05 10:57 25.77351 -80.59804 4001 ft 263 kts 85°
2026-05-05 10:57 25.77461 -80.57836 3996 ft 249 kts 86°
2026-05-05 10:57 25.77556 -80.55971 3986 ft 234 kts 86°
2026-05-05 10:58 25.77647 -80.54237 3917 ft 222 kts 85°
2026-05-05 10:58 25.77746 -80.52552 3751 ft 212 kts 86°
2026-05-05 10:58 25.77828 -80.50944 3451 ft 206 kts 86°
2026-05-05 10:58 25.77897 -80.49381 3158 ft 200 kts 86°
2026-05-05 10:59 25.77958 -80.47875 2881 ft 194 kts 87°
2026-05-05 10:59 25.78014 -80.46394 2614 ft 187 kts 87°
2026-05-05 10:59 25.78068 -80.44994 2371 ft 180 kts 86°
2026-05-05 10:59 25.78121 -80.43618 2138 ft 173 kts 86°
2026-05-05 11:00 25.78170 -80.42345 1914 ft 160 kts 86°
2026-05-05 11:00 25.78216 -80.41174 1710 ft 145 kts 86°
2026-05-05 11:00 25.78260 -80.40078 1556 ft 142 kts 85°
2026-05-05 11:00 25.78305 -80.38989 1390 ft 141 kts 86°
2026-05-05 11:01 25.78347 -80.37913 1208 ft 137 kts 85°
2026-05-05 11:01 25.78390 -80.36862 1032 ft 136 kts 85°
2026-05-05 11:01 25.78432 -80.35818 856 ft 136 kts 85°
2026-05-05 11:01 25.78475 -80.34767 676 ft 135 kts 86°
2026-05-05 11:02 25.78517 -80.33732 506 ft 135 kts 86°
2026-05-05 11:02 25.78560 -80.32690 317 ft 134 kts 86°
2026-05-05 11:02 25.78606 -80.31667 138 ft 133 kts 86°
2026-05-05 11:02 25.78648 -80.30647 22 ft 127 kts 86°
2026-05-05 11:03 25.78683 -80.29795 14 ft 89 kts 87°
2026-05-05 11:03 25.78726 -80.29303 14 ft 39 kts 73°
2026-05-05 11:03 25.78800 -80.29145 14 ft 16 kts 60°
2026-05-05 11:03 25.78825 -80.29022 14 ft 16 kts 79°
2026-05-05 11:04 25.78854 -80.28899 14 ft 16 kts 77°
2026-05-05 11:04 25.78868 -80.28773 14 ft 16 kts 87°
2026-05-05 11:04 25.78878 -80.28643 14 ft 16 kts 71°
2026-05-05 11:04 25.78959 -80.28553 14 ft 16 kts 35°
2026-05-05 11:05 25.79055 -80.28480 14 ft 16 kts 37°
2026-05-05 11:05 25.79148 -80.28404 14 ft 16 kts 38°
2026-05-05 11:05 25.79201 -80.28313 14 ft 10 kts 75°
2026-05-05 11:05 25.79210 -80.28268 14 ft 0 kts 78°
2026-05-05 11:06 25.79210 -80.28265 14 ft 0 kts 78°